www.pogodaiklimat.ru
ПОГОДА в Аль-Вафре
Время
(UTC), дата
06 22.10
09 22.10
12 22.10
15 22.10
18 22.10
21 22.10
00 23.10
03 23.10
06 23.10
09 23.10
12 23.10
15 23.10
18 23.10
21 23.10
00 24.10
03 24.10
06 24.10
09 24.10
12 24.10
15 24.10
18 24.10
21 24.10
00 25.10
03 25.10
06 25.10
09 25.10
12 25.10
15 25.10
18 25.10
21 25.10
00 26.10
03 26.10
06 26.10
09 26.10
12 26.10
15 26.10
18 26.10
21 26.10
00 27.10
03 27.10
06 27.10
09 27.10
12 27.10
15 27.10
18 27.10
21 27.10
00 28.10
03 28.10
06 28.10
09 28.10
12 28.10
15 28.10
18 28.10
21 28.10
00 29.10
03 29.10
Ветер
(напр.,м/с)
Видим. Явления Облачность Т
(С)
Тd
(С)
f
(%)
Тe
(С)
Тes
(С)
Комфортность P
(гПа)
Po
(гПа)
Тmin
(С)
Tmax
(С)
R
(мм)
R24
(мм)
S
(см)
СЗ 4-6
{8}
14 км н/о +29.4 +7.7 26 +29 +29 жарко 1014.3 1002.1 236
СЗ 3-7
{7}
15 км н/о +35.0 +6.8 18 +33 +33 жарко 1012.0 1000.1 353
С 2-4
{9}
14 км н/о +34.7 +5.0 16 +32 +32 жарко 1010.9 999.0 32
СВ 1-2
{7}
8000 м дымка н/о +24.7 +10.7 41 +26 +26 жарко 1011.7 999.4
З 1-2
{7}
6000 м дымка н/о +19.5 +9.8 53 +22 +22 комфорт 1012.9 1000.3
З 2-3
{3}
7000 м дымка н/о +19.6 +7.7 46 +21 +21 комфорт 1012.5 999.9 +19.4 +36.6
СЗ 2-3
{5}
8000 м дым н/о +21.7 +2.9 29 +22 +22 комфорт 1011.8 999.3
СЗ 2-4
{4}
16 км н/о +20.1 +2.9 32 +21 +21 комфорт 1012.6 1000.1
СЗ 3-5
{6}
18 км н/о +29.4 +5.2 22 +28 +28 жарко 1013.2 1001.0 241
СЗ 2-4
{6}
19 км н/о +36.4 +3.9 13 +33 +33 жарко 1011.4 999.5 354
СВ 2-3
{6}
19 км н/о +35.4 +8.6 19 +31 +31 жарко 1010.1 998.2 27
ЮВ 1-1
{5}
9000 м дымка н/о +26.1 +13.4 45 +28 +28 жарко 1011.3 999.0
ЮЗ 1-1
{5}
7000 м дымка н/о +20.1 +12.5 62 +23 +23 комфорт 1012.5 1000.0
З 2-3
{3}
9000 м дымка н/о +18.9 +9.6 55 +20 +20 1012.2 999.6 +18.0 +38.5
З 2-3
{3}
19 км н/о +18.1 +0.6 31 +19 +19 1011.6 999.0
З 2-2
{4}
15 км н/о +16.5 -0.6 31 +17 +17 1012.8 1000.1
СЗ 2-3
{4}
14 км н/о +28.8 +4.4 21 +27 +27 жарко 1013.7 1001.5 227
Ю 1-3
{3}
13 км н/о +35.7 -0.3 10 +32 +32 жарко 1012.6 1000.7 344
ЮВ 1-2
{6}
19 км н/о +35.1 +8.7 20 +31 +31 жарко 1011.7 999.8 32
В 1-2
{6}
10 км н/о +26.2 +16.2 54 +30 +30 душно 1013.1 1000.8
ЮЗ 1-1
{6}
7000 м дымка н/о +19.0 +14.1 73 +22 +22 комфорт 1014.3 1001.7
З 2-3
{3}
14 км н/о +16.5 +6.3 51 +17 +17 1013.3 1000.6 +15.8 +37.3
З 2-3
{3}
20 км н/о +18.0 -5.5 20 +19 +19 1013.3 1000.7
З 2-4
{4}
19 км н/о +17.8 -7.6 17 +18 +18 1014.1 1001.4
З 3-4
{5}
15 км н/о +29.6 -4.1 11 +26 +26 жарко 1015.0 1002.8 234
ЮЗ 3-5
{6}
19 км н/о +35.7 -5.6 7 +31 +31 жарко 1013.5 1001.6 345
З 1-3
{6}
19 км н/о +33.8 -6.3 7 +30 +30 жарко 1012.4 1000.4 29
В 1-2
{3}
12 км н/о +25.3 +3.8 25 +24 +24 комфорт 1013.4 1001.1
Ю 1-2
{3}
5000 м дымка н/о +19.4 +6.9 44 +21 +21 комфорт 1014.1 1001.5
З 1-2
{2}
13 км н/о +17.2 +7.9 54 +18 +18 1014.1 1001.4 +15.6 +36.9
З 2-2
{3}
17 км н/о +18.5 +4.8 40 +19 +19 1014.0 1001.4
З 2-2
{3}
17 км н/о +16.1 +0.9 36 +17 +17 1015.3 1002.5
З 2-4
{6}
14 км н/о +29.6 +3.4 19 +28 +28 жарко 1016.2 1004.0 223
СЗ 2-3
{5}
19 км н/о +34.7 -3.2 9 +31 +31 жарко 1014.5 1002.5 334
В 1-3
{5}
19 км н/о +33.8 -2.3 10 +30 +30 жарко 1013.2 1001.2 36
В 1-1
{6}
8000 м дымка н/о +24.3 +11.9 46 +26 +26 жарко 1014.5 1002.1
З 2-2
{6}
5000 м дымка н/о +19.6 +11.8 61 +22 +22 комфорт 1015.7 1003.1
З 2-3
{3}
9000 м дымка н/о +19.5 +10.4 56 +21 +21 комфорт 1014.9 1002.3 +15.0 +37.1
С 2-2
{4}
13 км н/о +17.4 +4.1 41 +18 +18 1014.5 1001.8
З 2-3
{3}
14 км н/о +16.9 +1.9 36 +17 +17 1015.7 1003.0
З 3-6
{6}
17 км н/о +29.9 +5.0 21 +28 +28 жарко 1016.4 1004.2 217
СЗ 2-4
{6}
18 км н/о +35.6 +1.6 12 +32 +32 жарко 1014.5 1002.6 325
С 2-5
{6}
19 км н/о +33.7 -2.8 9 +30 +30 жарко 1013.2 1001.2 33
В 1-1
{6}
6000 м дымка н/о +24.7 +8.4 35 +25 +25 комфорт 1014.5 1002.1
СЗ 1-2
{6}
4900 м дымка н/о +19.6 +10.5 56 +22 +22 комфорт 1015.6 1003.0
З 2-4
{4}
6000 м дымка н/о +21.0 +10.9 52 +24 +24 комфорт 1014.8 1002.3 +14.7 +36.0
З 1-2
{4}
9000 м дымка н/о +17.1 +6.8 51 +18 +18 1014.9 1002.2
СЗ 2-2
{4}
12 км н/о +16.8 +4.3 43 +17 +17 1016.0 1003.3
СЗ 2-3
{4}
15 км н/о +29.7 +5.6 22 +28 +28 жарко 1016.4 1004.2 215
СЗ 2-3
{3}
17 км н/о +35.0 +5.4 16 +32 +32 жарко 1014.7 1002.7 323
СВ 2-4
{5}
19 км н/о +33.5 +9.2 22 +30 +30 жарко 1013.7 1001.7 33
Ю 1-2
{6}
6000 м дымка н/о +25.3 +13.1 47 +27 +27 жарко 1015.1 1002.7
З 1-2
{6}
3300 м дымка н/о +20.0 +13.0 64 +23 +23 комфорт 1016.4 1003.8
З 2-3
{3}
5000 м дымка н/о +19.4 +12.4 64 +21 +21 комфорт 1016.3 1003.7 +16.1 +35.6
З 2-2
{3}
7000 м дымка н/о +16.9 +7.0 52 +17 +17 1015.8 1003.1
З 1-2
{2}
10 км н/о +15.6 +1.9 40 +16 +16 1016.7 1003.9
Местоположение метеостанции Аль-Вафра (Кувейт): широта 28.56 долгота 48.06 высота над уровнем моря 107 м.
В архиве по умолчанию представлена погода в Аль-Вафре за последнюю неделю. Архивные данные за месяц целиком и за предыдущие месяцы, начиная с января 2011 года, Вы можете получить, выбрав интересующий диапазон дат из раскрывающегося списка и нажав кнопку "Найти!".
*Определитесь, кто Вы:
Внимание! Время в таблицах - всемирное. Для получения местного времени необходимо прибавить поправку, которая равна 3 ч.
Смотрите также архив погоды в соседних городах и на ближайших метеорологических станциях:
Партнеры нашего сайта:      
Пояснения к столбцам:
  • Ветер - указаны скорость ветра в м/с - средняя за 10 мин, порывы в срок и между сроками (в фигурных скобках) и направление, откуда дует ветер: С - северный,
  • СВ - северо-восточный, В - восточный, ЮВ - юго-восточный, Ю - южный, ЮЗ - юго-западный, З - западный, СЗ - северо-западный.
  • Видимость - горизонтальная дальность видимости в метрах или километрах. При видимости от 1 до 10 км при отсутствии осадков обычно наблюдается дымка, при ухудшении видимости до 1 км и менее - туман. В сухую погоду видимость может ухудшаться дымом, пылью или мглою.
  • Явления - указаны атмосферные явления, наблюдавшиеся в срок или в последний час перед сроком; фигурными скобками обозначены явления, наблюдавшиеся между сроками (за 1-3 часа до срока); квадратными скобками обозначены град или гололедные отложения с указанием их диаметра в мм.
  • Облачность - указаны через наклонную черту общая и нижняя облачность в баллах и высота нижней границы облаков в метрах; квадратными скобками обозначены формы облаков: Ci - перистые, Cs - перисто-слоистые, Cc - перисто-кучевые, Ac - высококучевые, As - высокослоистые, Sc - слоисто-кучевые, Ns - слоисто-дождевые, Cu - кучевые, Cb - кучево-дождевые. Подробнее классификацию облаков см. в Атласе облаков (PDF).
  • T - Температура воздуха - температура, измеренная на высоте 2 м над землей.
  • Td - Температура точки росы - температура, при понижении до которой содержащийся в воздухе водяной пар достигнет насыщения.
  • f - Относительная влажность воздуха - влажноcть воздуха, измеренная на высоте 2 м над землей.
  • Te - Эффективная температура - температура, которую ощущает одетый по сезону человек в тени. Характеристика душности погоды. При расчете учитывается влияние влажности воздуха и скорости ветра на теплоощущения человека.
  • Tes - Эффективная температура на солнце - температура, которую ощущает человек, с поправкой на солнечный нагрев. Характеристика знойности погоды. Зависит от высоты солнца над горизонтом, облачности и скорости ветра. Ночью, в пасмурную погоду, а также при ветре 12 м/с и более поправка равна нулю.
  • P - Атмосферное давление - приведенное к уровню моря атмосферное давление.
  • Po - Атмосферное давление - измеренное на уровне метеостанции атмосферное давление.
  • Tmin - Минимальная температура - минимум температуры воздуха на высоте 2 м над землей.
  • Tmax - Максимальная температура - максимум температуры воздуха на высоте 2 м над землей.
  • R - Количество осадков - Количество выпавших осадков за период времени, мм. При наведении курсора мыши на число - период времени, за который выпало указанное количество осадков.
  • R24 - Количество осадков - Количество выпавших осадков за 24 часа, мм.
  • S - Снежный покров - Высота снежного покрова, см. При наведении курсора мыши на число - состояние снежного покрова и степень покрытия местности в баллах.